Regional Weather Roundup
Issued by NWS

Home | Current Version | Previous Version | Graphics & Text | Print | Product List | Glossary Off
Versions: 1 2 3 4 5 6 7 8 9 10 11 12 13 14 15 16 17 18 19 20 21 22 23 24 25 26 27 28 29 30 31 32 33 34 35 36 37 38 39 40 41 42 43 44 45 46 47 48 49 50

000
ASUS43 KBIS 181010
RWRND

NORTH DAKOTA REGIONAL WEATHER ROUNDUP
NATIONAL WEATHER SERVICE BISMARCK ND
500 AM CDT THU SEP 18 2014

NOTE: "FAIR" INDICATES FEW OR NO CLOUDS BELOW 12,000 FEET WITH NO
SIGNIFICANT WEATHER AND/OR OBSTRUCTIONS TO VISIBILITY.


NDZ001>003-009>011-017-181100-
NORTHWEST NORTH DAKOTA

CITY           SKY/WX    TMP DP  RH WIND       PRES   REMARKS
WILLISTON      CLEAR     57  47  69 SE6       29.81F
MINOT          CLEAR     47  45  93 SE9       29.91F
MINOT AFB      PTCLDY    45  45  99 SE9       29.90F
$$

NDZ018>021-031>035-040>046-181100-
SOUTHWEST NORTH DAKOTA

CITY           SKY/WX    TMP DP  RH WIND       PRES   REMARKS
BISMARCK       CLEAR     48  46  93 NE7       29.94F
DICKINSON      CLEAR     52  46  80 S12       29.86F
GARRISON         N/A     52  49  89 SE9       29.91F
HETTINGER ARPT PTCLDY    52  46  80 SE9       29.90F
$$

NDZ004>008-012>016-024-026-027-054-181100-
NORTHEAST NORTH DAKOTA

CITY           SKY/WX    TMP DP  RH WIND       PRES   REMARKS
GRAND FORKS    CLEAR     37  36  96 CALM      30.01F
GRND FRKS AFB  CLEAR     36  36 100 N2        30.02S
DEVILS LAKE    CLEAR     43  36  75 E6        29.96F
$$

NDZ022-023-025-028>030-036>039-047>053-181100-
SOUTHEAST NORTH DAKOTA

CITY           SKY/WX    TMP DP  RH WIND       PRES   REMARKS
FARGO          CLEAR     44  42  93 CALM      30.00S
JAMESTOWN      FOG       40  39  97 CALM      29.98F VSB 1/4
$$




USA.gov is the U.S. government's official web portal to all federal, state and local government web resources and services.